Location: Jackson Park
(37.2862°N, 79.9123°W)
Time: 23:04:52
(UTC+00:00)

ISS - Pass Details

Date: 25 April 2026
Orbit: 414 x 424 km, 51.6° (Epoch: 15 May)

Event Time Altitude Azimuth Distance (km) Brightness Sun altitude
Exits shadow 08:57:30 10° 315° (NW) 1,513 -1.1 -17.8°
Reaches altitude 10° 08:57:36 10° 316° (NW) 1,497 -1.1 -17.8°
Maximum altitude 08:58:58 12° 341° (NNW) 1,384 -1.0 -17.6°
Drops below altitude 10° 09:00:21 10° 5° (N) 1,502 -0.5 -17.3°
Sets 09:03:35 0° 38° (NE) 2,371 1.4 -16.8°
